Location: Poprad
(49.0500°N, 20.3000°E)
Time: 19:36:01
(UTC+02:00)

ITUPSAT 1 - Pass Details

Date: 02 May 2024
Orbit: 694 x 707 km, 98.5° (Epoch: 20 May)

Event Time Altitude Azimuth Distance (km) Brightness Sun altitude
Rises 23:35:14 0° 8° (N) 3,085 ? -23.8°
Reaches altitude 10° 23:37:36 10° 1° (N) 2,163 ? -23.9°
Maximum altitude 23:42:00 40° 293° (WNW) 1,027 ? -24.1°
Enters shadow 23:43:48 28° 247° (WSW) 1,291 ? -24.2°
